Location: Big Spring State Park
(32.2296°N, 101.4897°W)
Time: 23:11:33
(UTC-05:00)

Envisat - Visible Passes

Search period start: 20 April 2018 00:00
Search period end: 30 April 2018 00:00
Orbit: 764 x 766 km, 98.2° (Epoch: 20 April)

Date Brightness Start Highest point End Pass type
(mag) Time Alt. Az. Time Alt. Az. Time Alt. Az.
20 Apr 3.1 21:20:50 10° S 21:25:54 79° WSW 21:30:59 10° NNW visible
21 Apr 3.4 20:44:32 10° SE 20:49:18 42° ENE 20:54:04 10° N visible
21 Apr 5.5 22:25:11 10° SW 22:28:25 17° W 22:31:40 10° NW visible
22 Apr 4.2 21:46:45 10° S 21:51:31 41° W 21:56:17 10° NNW visible
23 Apr 2.9 21:09:42 10° SSE 21:14:46 80° ENE 21:19:51 10° N visible
24 Apr 5.2 22:13:19 10° SW 22:17:12 22° W 22:21:06 10° NW visible
25 Apr 3.7 21:35:24 10° S 21:40:20 54° W 21:45:19 10° NNW visible
26 Apr 3.1 20:58:40 10° SSE 21:03:39 62° ENE 21:08:39 10° N visible
26 Apr 5.8 22:41:26 10° WSW 22:42:59 11° W 22:44:32 10° WNW visible
27 Apr 4.8 22:01:40 10° SSW 22:05:59 28° W 22:10:21 10° NW visible
28 Apr 3.3 21:24:08 10° S 21:29:11 71° WSW 21:34:16 10° NNW visible
29 Apr 3.3 20:47:43 10° SE 20:52:33 47° ENE 20:57:24 10° N visible
29 Apr 5.6 22:28:51 10° SW 22:31:44 15° W 22:34:37 10° WNW visible
